Location: Lake Almanor
(40.2485°N, 121.1442°W)
Time: 19:49:00
(UTC-08:00)

STARLINK-1085 - Pass Details

Date: 04 February 2020
Orbit: 348 x 351 km, 53.0° (Epoch: 28 February)

Event Time Altitude Azimuth Distance (km) Brightness Sun altitude
Rises 18:24:02 0° 292° (WNW) 2,287 7.8 -11.4°
Reaches altitude 10° 18:26:46 10° 267° (W) 1,419 7.2 -11.9°
Maximum altitude 18:28:36 15° 232° (SW) 1,171 6.3 -12.2°
Drops below altitude 10° 18:30:25 10° 196° (SSW) 1,401 6.1 -12.6°
Sets 18:33:05 0° 171° (S) 2,237 6.8 -13.1°
